Weather History for Wolf Point, MT

Change the Weather History Date:

Friday, February 22, 2013

  Actual Average Record
Temperature  
Mean Temperature 22 °F -  
Max Temperature 39 °F 33 °F 66 °F (2002)
Min Temperature 5 °F 8 °F -14 °F (2011)
Degree Days  
Heating Degree Days 43    
Cooling Degree Days 0    
Moisture  
Dew Point 15 °F    
Average Humidity 81    
Maximum Humidity 92    
Minimum Humidity 57    
Precipitation  
Precipitation 0.00 in 0.01 in 0.06 in (2012)
Month to date precipitation 0.09 0.14  
Year to date precipitation 0.20 0.45  
Sea Level Pressure  
Sea Level Pressure 29.90 in    
Wind  
Wind Speed 3 mph (ENE)    
Max Wind Speed 9 mph    
Max Gust Speed -    
Visibility 9 miles    
Events      
T = Trace of Precipitation, MM = Missing Value Source: NWS Daily Summary

Daily Weather History Graph

Daily Weather History Graph

Search for Another Location

Airport:

Trip Planner

Search our weather history database for the weather conditions in past years. The results will help you decide how hot, cold, wet, or windy it might be!

Date:

Astronomy

Feb. 22, 2013 Rise Set
Actual Time 6:55 AM MST 5:36 PM MST
Civil Twilight 6:24 AM MST 6:07 PM MST
Nautical Twilight 5:48 AM MST 6:43 PM MST
Astronomical Twilight 5:12 AM MST 7:19 PM MST
Moon 2:41 PM MST (2/22) 4:52 AM MST (2/22)
Length of Visible Light 11h 43m
Length of Day
10h 40m
Waxing Gibbous, 90% of the Moon is Illuminated
Feb 22
Waxing Gibbous
Feb 25
Full
Mar 4
Last Quarter
Mar 11
New
Mar 19
First Quarter

Hourly Weather History & Observations

Time (MST) Temp. Windchill Dew Point Humidity Pressure Visibility Wind Dir Wind Speed Gust Speed Precip Events Conditions
12:53 AM 12.9 °F 6.9 °F 10.0 °F 88% 30.03 in 6.0 mi ENE 3.5 mph - N/A   Partly Cloudy
1:53 AM 10.9 °F 2.9 °F 9.0 °F 92% 30.02 in 7.0 mi ENE 4.6 mph - N/A   Clear
2:53 AM 10.9 °F 2.9 °F 8.1 °F 88% 30.01 in 6.0 mi East 4.6 mph - N/A   Clear
3:53 AM 9.0 °F - 6.1 °F 88% 30.00 in 7.0 mi Calm Calm - N/A   Clear
4:53 AM 8.1 °F 1.4 °F 5.0 °F 87% 30.00 in 8.0 mi East 3.5 mph - N/A   Clear
5:53 AM 8.1 °F - 3.9 °F 83% 30.00 in 9.0 mi Calm Calm - N/A   Clear
6:53 AM 5.0 °F - 1.9 °F 87% 30.01 in 8.0 mi Calm Calm - N/A   Clear
7:53 AM 10.9 °F 4.7 °F 8.1 °F 88% 30.00 in 7.0 mi ENE 3.5 mph - N/A   Overcast
8:53 AM 14.0 °F 5.1 °F 10.9 °F 88% 29.99 in 6.0 mi East 5.8 mph - N/A   Overcast
9:53 AM 17.1 °F 11.7 °F 14.0 °F 88% 29.98 in 7.0 mi ENE 3.5 mph - N/A   Overcast
10:53 AM 21.9 °F - 17.1 °F 82% 29.95 in 10.0 mi Calm Calm - N/A   Overcast
11:53 AM 27.0 °F - 19.9 °F 75% 29.93 in 10.0 mi Calm Calm - N/A   Partly Cloudy
12:53 PM 33.1 °F - 23.0 °F 66% 29.89 in 10.0 mi Calm Calm - N/A   Clear
1:53 PM 36.0 °F - 24.1 °F 62% 29.86 in 10.0 mi Calm Calm - N/A   Clear
2:53 PM 37.9 °F - 24.1 °F 57% 29.83 in 10.0 mi Calm Calm - N/A   Clear
3:53 PM 37.0 °F 34.5 °F 25.0 °F 62% 29.83 in 10.0 mi ESE 3.5 mph - N/A   Clear
4:53 PM 35.1 °F 30.1 °F 25.0 °F 67% 29.82 in 10.0 mi East 5.8 mph - N/A   Clear
5:53 PM 28.0 °F 24.2 °F 23.0 °F 81% 29.83 in 10.0 mi NE 3.5 mph - N/A   Clear
6:53 PM 25.0 °F 17.1 °F 21.0 °F 85% 29.82 in 10.0 mi NE 6.9 mph - N/A   Clear
7:53 PM 24.1 °F 16.0 °F 21.0 °F 88% 29.78 in 10.0 mi ENE 6.9 mph - N/A   Clear
8:53 PM 21.9 °F 13.4 °F 19.0 °F 89% 29.77 in 10.0 mi ENE 6.9 mph - N/A   Clear
9:53 PM 21.9 °F 11.7 °F 18.0 °F 85% 29.74 in 10.0 mi NE 9.2 mph - N/A   Clear
10:53 PM 21.9 °F 15.7 °F 17.1 °F 82% 29.72 in 10.0 mi NNE 4.6 mph - N/A   Clear
11:53 PM 21.0 °F 12.4 °F 17.1 °F 85% 29.70 in 10.0 mi NE 6.9 mph - N/A   Clear